• In Czech Republic
  • List of Countries
  • For 7 days
  • Water Temperature
  • Satellite Maps
  • Weather Map
  • Weather Widgets
  • user-avatar
    Login

    Hourly Weather Novonikolaevka

    Today, 23 June, Saturday

    Time Temperature Precipitation Wind Pressure Humidity
    00:00 +25°C° 0 mm 2 mps 746 mmHg 50%
    01:00 +25°C° 0 mm 2 mps 746 mmHg 51%
    02:00 +25°C° 0 mm 2 mps 746 mmHg 51%
    03:00 +25°C° 0.2 mm 2 mps 746 mmHg 55%
    04:00 +24°C° 0.2 mm 2 mps 746 mmHg 59%
    05:00 +24°C° 0.2 mm 2 mps 746 mmHg 62%
    06:00 +25°C° 0 mm 2 mps 746 mmHg 58%
    07:00 +27°C° 0 mm 2 mps 746 mmHg 54%
    08:00 +29°C° 0 mm 3 mps 745 mmHg 48%
    09:00 +30°C° 0.1 mm 3 mps 745 mmHg 46%
    10:00 +32°C° 0.1 mm 4 mps 745 mmHg 43%
    11:00 +33°C° 0.1 mm 4 mps 745 mmHg 40%
    12:00 +34°C° 0 mm 5 mps 745 mmHg 40%
    13:00 +34°C° 0 mm 5 mps 745 mmHg 40%
    14:00 +34°C° 0 mm 5 mps 745 mmHg 39%
    15:00 +33°C° 0 mm 5 mps 745 mmHg 44%
    16:00 +32°C° 0 mm 5 mps 745 mmHg 49%
    17:00 +30°C° 0 mm 4 mps 745 mmHg 54%
    18:00 +28°C° 1 mm 4 mps 745 mmHg 61%
    19:00 +27°C° 1 mm 3 mps 745 mmHg 69%
    20:00 +25°C° 1 mm 3 mps 745 mmHg 76%
    21:00 +24°C° 0.7 mm 2 mps 745 mmHg 79%
    22:00 +23°C° 0.7 mm 2 mps 745 mmHg 82%
    23:00 +23°C° 0.7 mm 1 mps 746 mmHg 85%

    Tomorrow, 24 June, Sunday

    Time Temperature Precipitation Wind Pressure Humidity
    00:00 +21°C° 1.1 mm 2 mps 746 mmHg 86%
    01:00 +21°C° 1.1 mm 3 mps 746 mmHg 87%
    02:00 +21°C° 1.1 mm 3 mps 746 mmHg 88%
    03:00 +20°C° 0.2 mm 4 mps 746 mmHg 89%
    04:00 +19°C° 0.2 mm 4 mps 747 mmHg 90%
    05:00 +19°C° 0.2 mm 5 mps 747 mmHg 90%
    06:00 +17°C° 0 mm 5 mps 747 mmHg 88%
    07:00 +17°C° 0 mm 6 mps 748 mmHg 86%
    08:00 +17°C° 0 mm 6 mps 748 mmHg 84%
    09:00 +19°C° 0 mm 6 mps 749 mmHg 77%
    10:00 +20°C° 0 mm 6 mps 749 mmHg 70%
    11:00 +21°C° 0 mm 5 mps 749 mmHg 63%
    12:00 +22°C° 0 mm 5 mps 750 mmHg 59%
    13:00 +23°C° 0 mm 5 mps 750 mmHg 54%
    14:00 +25°C° 0 mm 5 mps 750 mmHg 49%
    15:00 +25°C° 0 mm 5 mps 750 mmHg 50%
    16:00 +25°C° 0 mm 4 mps 750 mmHg 50%
    17:00 +23°C° 0 mm 4 mps 750 mmHg 51%
    18:00 +22°C° 0 mm 4 mps 751 mmHg 57%
    19:00 +20°C° 0 mm 3 mps 751 mmHg 63%
    20:00 +18°C° 0 mm 2 mps 751 mmHg 69%
    21:00 +18°C° 0 mm 2 mps 752 mmHg 71%
    22:00 +17°C° 0 mm 2 mps 752 mmHg 74%
    23:00 +16°C° 0 mm 2 mps 752 mmHg 76%

    Day after tomorrow, 25 June, Monday

    Time Temperature Precipitation Wind Pressure Humidity
    00:00 +16°C° 0 mm 2 mps 752 mmHg 79%
    01:00 +15°C° 0 mm 2 mps 752 mmHg 81%
    02:00 +15°C° 0 mm 2 mps 753 mmHg 83%
    03:00 +15°C° 0 mm 2 mps 753 mmHg 83%
    04:00 +15°C° 0 mm 2 mps 753 mmHg 82%
    05:00 +16°C° 0 mm 2 mps 753 mmHg 82%
    06:00 +18°C° 0 mm 3 mps 753 mmHg 75%
    07:00 +19°C° 0 mm 3 mps 753 mmHg 68%
    08:00 +21°C° 0 mm 3 mps 754 mmHg 60%
    09:00 +22°C° 0 mm 3 mps 754 mmHg 55%
    10:00 +24°C° 0 mm 3 mps 754 mmHg 50%
    11:00 +25°C° 0 mm 3 mps 754 mmHg 45%
    12:00 +26°C° 0 mm 3 mps 754 mmHg 44%
    13:00 +27°C° 0 mm 3 mps 753 mmHg 42%
    14:00 +27°C° 0 mm 3 mps 753 mmHg 40%
    15:00 +27°C° 0 mm 3 mps 753 mmHg 43%
    16:00 +26°C° 0 mm 4 mps 753 mmHg 45%
    17:00 +26°C° 0 mm 4 mps 753 mmHg 47%
    18:00 +23°C° 0 mm 4 mps 753 mmHg 53%
    19:00 +22°C° 0 mm 3 mps 753 mmHg 58%
    20:00 +20°C° 0 mm 3 mps 753 mmHg 64%
    21:00 +19°C° 0 mm 3 mps 753 mmHg 65%
    22:00 +19°C° 0 mm 3 mps 753 mmHg 67%
    23:00 +18°C° 0 mm 4 mps 753 mmHg 68%

    26 June, Tuesday

    Time Temperature Precipitation Wind Pressure Humidity
    00:00 +17°C° 0 mm 4 mps 753 mmHg 70%
    01:00 +17°C° 0 mm 4 mps 753 mmHg 71%
    02:00 +17°C° 0 mm 4 mps 753 mmHg 73%
    03:00 +17°C° 0 mm 4 mps 753 mmHg 73%
    04:00 +16°C° 0 mm 5 mps 753 mmHg 73%
    05:00 +16°C° 0 mm 5 mps 753 mmHg 74%
    06:00 +19°C° 0 mm 5 mps 753 mmHg 69%
    07:00 +21°C° 0 mm 6 mps 753 mmHg 65%
    08:00 +23°C° 0 mm 6 mps 753 mmHg 61%
    09:00 +26°C° 0 mm 6 mps 752 mmHg 58%
    10:00 +27°C° 0 mm 6 mps 752 mmHg 56%
    11:00 +29°C° 0 mm 6 mps 752 mmHg 53%
    12:00 +30°C° 0 mm 6 mps 752 mmHg 52%
    13:00 +32°C° 0 mm 6 mps 751 mmHg 50%
    14:00 +32°C° 0 mm 6 mps 751 mmHg 49%
    15:00 +32°C° 0 mm 6 mps 751 mmHg 50%
    16:00 +32°C° 0 mm 6 mps 750 mmHg 51%
    17:00 +32°C° 0 mm 6 mps 750 mmHg 52%
    18:00 +29°C° 0.1 mm 6 mps 750 mmHg 57%
    19:00 +28°C° 0.1 mm 6 mps 750 mmHg 63%
    20:00 +26°C° 0.1 mm 5 mps 750 mmHg 68%
    21:00 +26°C° 0 mm 6 mps 750 mmHg 70%
    22:00 +24°C° 0 mm 6 mps 750 mmHg 71%
    23:00 +24°C° 0 mm 6 mps 749 mmHg 72%

    27 June, Wednesday

    Time Temperature Precipitation Wind Pressure Humidity
    00:00 +24°C° 0 mm 6 mps 749 mmHg 74%
    01:00 +23°C° 0 mm 5 mps 749 mmHg 75%
    02:00 +23°C° 0 mm 5 mps 749 mmHg 77%
    03:00 +23°C° 0 mm 5 mps 748 mmHg 78%
    04:00 +23°C° 0 mm 5 mps 748 mmHg 79%
    05:00 +23°C° 0 mm 5 mps 748 mmHg 80%
    06:00 +26°C° 0 mm 5 mps 748 mmHg 71%
    07:00 +27°C° 0 mm 5 mps 748 mmHg 63%
    08:00 +29°C° 0 mm 5 mps 748 mmHg 55%
    09:00 +32°C° 0 mm 5 mps 748 mmHg 47%
    10:00 +35°C° 0 mm 5 mps 748 mmHg 40%
    11:00 +37°C° 0 mm 5 mps 748 mmHg 33%
    12:00 +39°C° 0 mm 6 mps 748 mmHg 30%
    13:00 +39°C° 0 mm 6 mps 747 mmHg 27%
    14:00 +40°C° 0 mm 6 mps 747 mmHg 25%
    15:00 +39°C° 0 mm 5 mps 747 mmHg 28%
    16:00 +39°C° 0 mm 5 mps 747 mmHg 31%
    17:00 +37°C° 0 mm 4 mps 747 mmHg 34%
    18:00 +35°C° 0 mm 4 mps 747 mmHg 37%
    19:00 +33°C° 0 mm 3 mps 747 mmHg 40%
    20:00 +29°C° 0 mm 3 mps 747 mmHg 43%
    21:00 +29°C° 0 mm 3 mps 747 mmHg 43%
    22:00 +28°C° 0 mm 3 mps 747 mmHg 43%
    23:00 +27°C° 0 mm 4 mps 747 mmHg 43%

    28 June, Thursday

    Time Temperature Precipitation Wind Pressure Humidity
    00:00 +26°C° 0.1 mm 3 mps 747 mmHg 47%
    01:00 +26°C° 0.1 mm 3 mps 747 mmHg 51%
    02:00 +25°C° 0.1 mm 3 mps 747 mmHg 55%
    03:00 +25°C° 0.1 mm 3 mps 747 mmHg 57%
    04:00 +25°C° 0.1 mm 3 mps 747 mmHg 60%
    05:00 +25°C° 0.1 mm 3 mps 748 mmHg 63%
    06:00 +27°C° 0 mm 3 mps 748 mmHg 57%
    07:00 +29°C° 0 mm 3 mps 748 mmHg 51%
    08:00 +33°C° 0 mm 4 mps 748 mmHg 45%
    09:00 +34°C° 0 mm 4 mps 748 mmHg 42%
    10:00 +36°C° 0 mm 4 mps 748 mmHg 39%
    11:00 +37°C° 0 mm 4 mps 748 mmHg 35%
    12:00 +38°C° 0 mm 4 mps 748 mmHg 34%
    13:00 +38°C° 0 mm 4 mps 748 mmHg 33%
    14:00 +40°C° 0 mm 4 mps 748 mmHg 31%
    15:00 +40°C° 0 mm 4 mps 748 mmHg 33%
    16:00 +38°C° 0 mm 4 mps 748 mmHg 35%
    17:00 +38°C° 0 mm 3 mps 748 mmHg 37%
    18:00 +36°C° 0 mm 3 mps 748 mmHg 41%
    19:00 +32°C° 0 mm 2 mps 748 mmHg 45%
    20:00 +30°C° 0 mm 2 mps 748 mmHg 49%
    21:00 +30°C° 0 mm 2 mps 748 mmHg 51%
    22:00 +29°C° 0 mm 2 mps 748 mmHg 52%
    23:00 +28°C° 0 mm 3 mps 748 mmHg 53%
    Show more